Location: ?????
(44.4284°N, 135.2222°E)
Time: 10:29:04
(UTC+00:00)

DELTA 2 R/B (1) - Pass Details

Date: 22 January 2026
Orbit: 786 x 800 km, 39.6° (Epoch: 10 February)

Event Time Altitude Azimuth Distance (km) Brightness Sun altitude
Rises 09:39:05 0° 263° (W) 3,288 8.5 -18.6°
Reaches altitude 10° 09:41:37 10° 258° (WSW) 2,356 7.3 -19.0°
Maximum altitude 09:46:59 52° 184° (S) 976 4.0 -20.0°
Enters shadow 09:49:21 31° 125° (SE) 1,356 4.4 -20.4°
